2015-11-04 00:02:45 r, 15.24m,0000000071Hz,0000006499c,0000000.014s, 021.9C,00002195
2015-11-04 00:12:45 r, 15.25m,0000000071Hz,0000006569c,0000000.014s, 021.9C,00002195
2015-11-04 00:22:46 r, 15.14m,0000000078Hz,0000005888c,0000000.013s, 021.9C,00002195
2015-11-04 00:32:45 r, 15.12m,0000000078Hz,0000005837c,0000000.013s, 021.9C,00002195
2015-11-04 00:42:45 r, 15.08m,0000000082Hz,0000005617c,0000000.012s, 021.9C,00002195
2015-11-04 00:52:46 r, 15.14m,0000000078Hz,0000005893c,0000000.013s, 021.9C,00002195
2015-11-04 01:02:46 r, 15.10m,0000000081Hz,0000005698c,0000000.012s, 021.9C,00002195
2015-11-04 01:12:45 r, 15.17m,0000000075Hz,0000006093c,0000000.013s, 021.9C,00002195
2015-11-04 01:22:46 r, 15.13m,0000000078Hz,0000005882c,0000000.013s, 021.9C,00002195
2015-11-04 01:32:46 r, 15.11m,0000000080Hz,0000005728c,0000000.012s, 021.9C,00002195
2015-11-04 01:42:45 r, 15.09m,0000000081Hz,0000005641c,0000000.012s, 021.9C,00002195
2015-11-04 01:52:45 r, 15.09m,0000000081Hz,0000005656c,0000000.012s, 021.9C,00002195
2015-11-04 02:02:47 r, 15.10m,0000000081Hz,0000005721c,0000000.012s, 021.9C,00002195
2015-11-04 02:12:45 r, 15.11m,0000000080Hz,0000005766c,0000000.013s, 021.9C,00002195
2015-11-04 02:22:45 r, 15.04m,0000000086Hz,0000005383c,0000000.012s, 021.9C,00002195
2015-11-04 02:32:46 r, 15.04m,0000000084Hz,0000005435c,0000000.012s, 021.9C,00002195
2015-11-04 02:42:46 r, 14.97m,0000000089Hz,0000005100c,0000000.011s, 021.9C,00002195
2015-11-04 02:52:46 r, 15.04m,0000000085Hz,0000005426c,0000000.012s, 021.9C,00002195
2015-11-04 03:02:45 r, 14.97m,0000000090Hz,0000005067c,0000000.011s, 021.9C,00002195
2015-11-04 03:12:45 r, 15.01m,0000000088Hz,0000005262c,0000000.011s, 021.9C,00002195
2015-11-04 03:22:45 r, 14.97m,0000000090Hz,0000005093c,0000000.011s, 021.9C,00002195
2015-11-04 03:32:45 r, 14.95m,0000000092Hz,0000004987c,0000000.011s, 021.9C,00002195
2015-11-04 03:42:45 r, 15.04m,0000000086Hz,0000005401c,0000000.012s, 021.9C,00002195
2015-11-04 03:52:45 r, 15.00m,0000000087Hz,0000005219c,0000000.011s, 021.9C,00002195
2015-11-04 04:02:46 r, 15.04m,0000000086Hz,0000005398c,0000000.012s, 021.9C,00002195
2015-11-04 04:12:46 r, 15.00m,0000000088Hz,0000005221c,0000000.011s, 021.9C,00002195
2015-11-04 04:22:45 r, 14.91m,0000000095Hz,0000004830c,0000000.010s, 021.9C,00002195
2015-11-04 04:32:47 r, 14.95m,0000000093Hz,0000004976c,0000000.011s, 021.9C,00002195
2015-11-04 04:42:45 r, 14.93m,0000000094Hz,0000004870c,0000000.011s, 021.5C,00002195
2015-11-04 04:52:45 r, 14.97m,0000000092Hz,0000005061c,0000000.011s, 021.5C,00002195
2015-11-04 05:02:46 r, 14.91m,0000000096Hz,0000004800c,0000000.010s, 021.5C,00002195
2015-11-04 05:12:45 r, 14.88m,0000000099Hz,0000004673c,0000000.010s, 021.5C,00002195
2015-11-04 05:22:45 r, 14.90m,0000000096Hz,0000004765c,0000000.010s, 021.5C,00002195
2015-11-04 05:32:45 r, 14.75m,0000000113Hz,0000004135c,0000000.009s, 021.5C,00002195
2015-11-04 05:42:45 r, 14.72m,0000000114Hz,0000004043c,0000000.009s, 021.5C,00002195
2015-11-04 05:52:45 r, 14.68m,0000000118Hz,0000003895c,0000000.008s, 021.5C,00002195
2015-11-04 06:02:46 r, 14.69m,0000000118Hz,0000003922c,0000000.009s, 021.5C,00002195
2015-11-04 06:12:46 r, 14.67m,0000000119Hz,0000003850c,0000000.008s, 021.5C,00002195
2015-11-04 06:22:45 r, 14.65m,0000000121Hz,0000003748c,0000000.008s, 021.5C,00002195
2015-11-04 06:32:48 r, 14.52m,0000000138Hz,0000000000c,0000000.000s, 021.5C,00002195
2015-11-04 06:42:46 r, 13.98m,0000000228Hz,0000000000c,0000000.000s, 021.5C,00002195
2015-11-04 06:52:45 r, 12.77m,0000000694Hz,0000000000c,0000000.000s, 021.9C,00002195
2015-11-04 07:02:48 r, 11.05m,0000003377Hz,0000000000c,0000000.000s, 021.9C,00002195
2015-11-04 07:12:45 r, 09.41m,0000015349Hz,0000000000c,0000000.000s, 021.9C,00002195
2015-11-04 07:22:45 r, 08.38m,0000039502Hz,0000000000c,0000000.000s, 021.5C,00002195
2015-11-04 07:32:47 r, 07.38m,0000099363Hz,0000000000c,0000000.000s, 021.5C,00002195
2015-11-04 07:42:46 r, 06.91m,0000152843Hz,0000000000c,0000000.000s, 021.9C,00002195
2015-11-04 07:52:45 r, 06.49m,0000225774Hz,0000000000c,0000000.000s, 021.9C,00002195
2015-11-04 08:02:46 r, 06.28m,0000276326Hz,0000000000c,0000000.000s, 022.2C,00002195
2015-11-04 08:12:48 r, 06.04m,0000341935Hz,0000000000c,0000000.000s, 022.2C,00002195
2015-11-04 08:22:45 r, 05.93m,0000378690Hz,0000000000c,0000000.000s, 022.5C,00002195
2015-11-04 08:32:45 r, 00.00m,0000563741Hz,0000000000c,0000000.000s, 022.5C,00002195
2015-11-04 08:42:48 r, 00.00m,0000473489Hz,0000000000c,0000000.000s, 022.5C,00002195
2015-11-04 08:52:46 r, 00.00m,0000563801Hz,0000000000c,0000000.000s, 022.5C,00002195
2015-11-04 09:02:46 r, 00.00m,0000534368Hz,0000000000c,0000000.000s, 022.5C,00002195
2015-11-04 09:12:45 r, 00.00m,0000563817Hz,0000000000c,0000000.000s, 022.5C,00002195
2015-11-04 09:22:45 r, 00.00m,0000563793Hz,0000000000c,0000000.000s, 022.5C,00002195
2015-11-04 09:32:46 r, 00.00m,0000563824Hz,0000000000c,0000000.000s, 022.5C,00002195
2015-11-04 09:42:47 r, 00.00m,0000563805Hz,0000000000c,0000000.000s, 022.5C,00002195
2015-11-04 09:52:45 r, 00.00m,0000563819Hz,0000000000c,0000000.000s, 022.5C,00002195
2015-11-04 10:02:47 r, 00.00m,0000563724Hz,0000000000c,0000000.000s, 022.5C,00002195
2015-11-04 10:12:46 r, 00.00m,0000563791Hz,0000000000c,0000000.000s, 022.5C,00002195
2015-11-04 10:22:45 r, 00.00m,0000563747Hz,0000000000c,0000000.000s, 022.5C,00002195
2015-11-04 10:32:46 r, 00.00m,0000563816Hz,0000000000c,0000000.000s, 022.8C,00002195
2015-11-04 10:42:48 r, 00.00m,0000563845Hz,0000000000c,0000000.000s, 022.8C,00002195
2015-11-04 10:52:45 r, 00.00m,0000563883Hz,0000000000c,0000000.000s, 023.2C,00002195
2015-11-04 11:02:46 r, 00.00m,0000563905Hz,0000000000c,0000000.000s, 023.2C,00002195
2015-11-04 11:12:47 r, 00.00m,0000563852Hz,0000000000c,0000000.000s, 023.2C,00002195
2015-11-04 11:22:45 r, 00.00m,0000563918Hz,0000000000c,0000000.000s, 023.5C,00002195
2015-11-04 11:32:46 r, 00.00m,0000563885Hz,0000000000c,0000000.000s, 023.5C,00002195
2015-11-04 11:42:47 r, 00.00m,0000563905Hz,0000000000c,0000000.000s, 023.2C,00002195
2015-11-04 11:52:45 r, 00.00m,0000563979Hz,0000000000c,0000000.000s, 023.5C,00002195
2015-11-04 12:02:47 r, 00.00m,0000563886Hz,0000000000c,0000000.000s, 023.5C,00002195
2015-11-04 12:12:46 r, 00.00m,0000563947Hz,0000000000c,0000000.000s, 023.5C,00002195
2015-11-04 12:22:45 r, 00.00m,0000563978Hz,0000000000c,0000000.000s, 023.8C,00002195
2015-11-04 12:32:45 r, 00.00m,0000563887Hz,0000000000c,0000000.000s, 023.8C,00002195
2015-11-04 12:42:46 r, 00.00m,0000563826Hz,0000000000c,0000000.000s, 023.8C,00002195
2015-11-04 12:52:45 r, 00.00m,0000563966Hz,0000000000c,0000000.000s, 023.8C,00002195
2015-11-04 13:02:45 r, 00.00m,0000563980Hz,0000000000c,0000000.000s, 023.8C,00002195
2015-11-04 13:12:48 r, 00.00m,0000563875Hz,0000000000c,0000000.000s, 023.8C,00002195
2015-11-04 13:22:45 r, 00.00m,0000563827Hz,0000000000c,0000000.000s, 023.8C,00002195
2015-11-04 13:32:48 r, 00.00m,0000563760Hz,0000000000c,0000000.000s, 023.8C,00002195
2015-11-04 13:42:46 r, 00.00m,0000563864Hz,0000000000c,0000000.000s, 023.8C,00002195
2015-11-04 13:52:46 r, 00.00m,0000563913Hz,0000000000c,0000000.000s, 023.8C,00002195
2015-11-04 14:02:45 r, 00.00m,0000563882Hz,0000000000c,0000000.000s, 023.8C,00002195
2015-11-04 14:12:46 r, 00.00m,0000563810Hz,0000000000c,0000000.000s, 023.5C,00002195
2015-11-04 14:22:45 r, 00.00m,0000563845Hz,0000000000c,0000000.000s, 023.5C,00002195
2015-11-04 14:32:45 r, 00.00m,0000563864Hz,0000000000c,0000000.000s, 023.5C,00002195
2015-11-04 14:42:45 r, 00.00m,0000563877Hz,0000000000c,0000000.000s, 023.5C,00002195
2015-11-04 14:52:45 r, 00.00m,0000563809Hz,0000000000c,0000000.000s, 023.5C,00002195
2015-11-04 15:02:46 r, 00.00m,0000563859Hz,0000000000c,0000000.000s, 023.5C,00002195
2015-11-04 15:12:48 r, 00.00m,0000563806Hz,0000000000c,0000000.000s, 023.2C,00002195
2015-11-04 15:22:45 r, 00.00m,0000529434Hz,0000000000c,0000000.000s, 023.2C,00002195
2015-11-04 15:32:46 r, 00.00m,0000436495Hz,0000000000c,0000000.000s, 023.2C,00002195
2015-11-04 15:42:47 r, 06.39m,0000248474Hz,0000000000c,0000000.000s, 022.8C,00002195
2015-11-04 15:52:45 r, 06.65m,0000194162Hz,0000000000c,0000000.000s, 022.8C,00002195
2015-11-04 16:02:45 r, 06.56m,0000212375Hz,0000000000c,0000000.000s, 022.8C,00002195
2015-11-04 16:12:47 r, 06.64m,0000197174Hz,0000000000c,0000000.000s, 022.8C,00002195
2015-11-04 16:22:46 r, 06.72m,0000182515Hz,0000000000c,0000000.000s, 022.8C,00002195
2015-11-04 16:32:46 r, 06.98m,0000144096Hz,0000000000c,0000000.000s, 022.8C,00002195
2015-11-04 16:42:47 r, 07.54m,0000085924Hz,0000000000c,0000000.000s, 022.5C,00002195
2015-11-04 16:52:45 r, 08.74m,0000028425Hz,0000000000c,0000000.000s, 022.5C,00002195
2015-11-04 17:02:46 r, 09.45m,0000014846Hz,0000000000c,0000000.000s, 022.5C,00002195
2015-11-04 17:12:48 r, 10.61m,0000005108Hz,0000000000c,0000000.000s, 022.5C,00002195
2015-11-04 17:22:45 r, 12.28m,0000001090Hz,0000000000c,0000000.000s, 022.5C,00002195
2015-11-04 17:32:46 r, 13.79m,0000000271Hz,0000000000c,0000000.000s, 022.2C,00002195
2015-11-04 17:42:48 r, 14.43m,0000000150Hz,0000000000c,0000000.000s, 022.5C,00002195
2015-11-04 17:52:45 r, 14.71m,0000000115Hz,0000003998c,0000000.009s, 022.5C,00002195
2015-11-04 18:02:45 r, 14.72m,0000000114Hz,0000004015c,0000000.009s, 022.2C,00002195
2015-11-04 18:12:45 r, 14.61m,0000000126Hz,0000003644c,0000000.008s, 022.2C,00002195
2015-11-04 18:22:45 r, 14.67m,0000000119Hz,0000003855c,0000000.008s, 022.2C,00002195
2015-11-04 18:32:45 r, 14.68m,0000000118Hz,0000003883c,0000000.008s, 022.2C,00002195
2015-11-04 18:42:46 r, 14.74m,0000000111Hz,0000004107c,0000000.009s, 021.9C,00002195
2015-11-04 18:52:45 r, 14.79m,0000000104Hz,0000004312c,0000000.009s, 021.9C,00002195
2015-11-04 19:02:46 r, 14.81m,0000000104Hz,0000004373c,0000000.009s, 021.9C,00002195
2015-11-04 19:12:48 r, 14.85m,0000000100Hz,0000004571c,0000000.010s, 021.9C,00002195
2015-11-04 19:22:45 r, 14.81m,0000000105Hz,0000004387c,0000000.010s, 021.9C,00002195
2015-11-04 19:32:45 r, 14.98m,0000000089Hz,0000005143c,0000000.011s, 021.9C,00002195
2015-11-04 19:42:48 r, 14.87m,0000000098Hz,0000004639c,0000000.010s, 021.9C,00002195
2015-11-04 19:52:46 r, 14.97m,0000000091Hz,0000005105c,0000000.011s, 021.9C,00002195
2015-11-04 20:02:45 r, 15.00m,0000000088Hz,0000005222c,0000000.011s, 021.9C,00002195
2015-11-04 20:12:46 r, 15.05m,0000000085Hz,0000005485c,0000000.012s, 021.5C,00002195
2015-11-04 20:22:45 r, 15.01m,0000000087Hz,0000005248c,0000000.011s, 021.9C,00002195
2015-11-04 20:32:45 r, 14.95m,0000000091Hz,0000005004c,0000000.011s, 021.9C,00002195
2015-11-04 20:42:45 r, 14.88m,0000000098Hz,0000004695c,0000000.010s, 021.9C,00002195
2015-11-04 20:52:46 r, 15.02m,0000000086Hz,0000005301c,0000000.012s, 021.9C,00002195
2015-11-04 21:02:47 r, 14.93m,0000000094Hz,0000004870c,0000000.011s, 021.9C,00002195
2015-11-04 21:12:46 r, 14.87m,0000000100Hz,0000004633c,0000000.010s, 021.9C,00002195
2015-11-04 21:22:46 r, 14.81m,0000000104Hz,0000004375c,0000000.009s, 021.9C,00002195
2015-11-04 21:32:45 r, 14.96m,0000000093Hz,0000005040c,0000000.011s, 021.9C,00002195
2015-11-04 21:42:48 r, 15.02m,0000000087Hz,0000005282c,0000000.011s, 021.5C,00002195
2015-11-04 21:52:45 r, 15.00m,0000000088Hz,0000005246c,0000000.011s, 021.5C,00002195
2015-11-04 22:02:45 r, 14.90m,0000000097Hz,0000004743c,0000000.010s, 021.5C,00002195
2015-11-04 22:12:48 r, 14.87m,0000000099Hz,0000004664c,0000000.010s, 021.2C,00002195
2015-11-04 22:22:46 r, 14.92m,0000000095Hz,0000004852c,0000000.011s, 021.2C,00002195
2015-11-04 22:32:45 r, 14.92m,0000000095Hz,0000004848c,0000000.011s, 021.2C,00002195
2015-11-04 22:42:47 r, 14.95m,0000000092Hz,0000004984c,0000000.011s, 021.2C,00002195
2015-11-04 22:52:46 r, 14.95m,0000000092Hz,0000004968c,0000000.011s, 021.2C,00002195
2015-11-04 23:02:45 r, 14.98m,0000000088Hz,0000005135c,0000000.011s, 021.2C,00002195
2015-11-04 23:12:45 r, 14.97m,0000000091Hz,0000005078c,0000000.011s, 021.2C,00002195
2015-11-04 23:22:48 r, 14.97m,0000000090Hz,0000005059c,0000000.011s, 020.9C,00002195
2015-11-04 23:32:46 r, 15.04m,0000000085Hz,0000005433c,0000000.012s, 020.9C,00002195
2015-11-04 23:42:45 r, 15.02m,0000000085Hz,0000005340c,0000000.012s, 020.9C,00002195
2015-11-04 23:52:45 r, 15.02m,0000000085Hz,0000005285c,0000000.011s, 020.9C,00002195
